Wind_Speed
8 8 8 8 9 9 9 10 10 11 11 12 13 15 16 16 17 18 19 20 21 22 22 23 23 23 24 24 25 25 25 25 26 26 27 27 28 28 28 29 29 29 30
7 8 8 8 8 9 10 10 10 11 11 12 13 14 16 17 17 18 19 21 22 22 23 24 25 25 26 26 26 26 26 27 27 27 27 28 28 29 30 29 30 31 32
7 7 8 9 9 9 9 10 10 11 12 12 13 14 15 16 18 19 20 21 22 22 23 24 25 25 26 26 26 27 26 26 26 27 28 28 28 29 29 30 31 32 32
7 8 9 9 10 10 10 10 11 11 12 12 13 14 15 16 18 19 20 21 22 23 24 25 25 26 26 26 26 26 26 25 26 28 28 29 29 29 30 31 32 33 33
8 9 10 10 10 10 10 10 11 12 12 13 14 15 16 17 17 19 20 21 22 23 24 25 24 24 25 26 25 25 26 27 27 29 30 30 30 30 31 32 33 34 34
10 10 10 10 10 11 11 12 12 13 13 14 15 15 16 17 18 18 19 20 21 22 23 24 23 23 24 24 25 25 26 27 28 29 30 31 31 32 32 33 34 35 36
11 11 11 11 11 12 12 12 13 14 14 15 15 16 17 17 18 19 19 20 20 21 22 22 23 23 23 23 24 26 27 28 29 30 31 31 32 32 34 35 36 37 38
13 13 13 13 13 13 13 14 15 15 16 17 17 17 18 18 19 19 19 19 20 21 21 21 22 23 23 24 25 26 27 28 29 29 29 30 32 33 34 35 37 38 38
14 14 14 15 15 15 16 16 16 17 18 18 18 18 19 19 20 20 20 20 20 21 21 21 22 23 24 25 26 26 27 28 28 29 29 30 31 32 32 34 35 36 37
16 16 16 16 16 17 17 18 18 19 19 19 19 20 20 21 21 21 21 21 21 22 23 23 23 24 25 25 26 26 27 27 28 28 29 30 31 31 32 33 34 35 36
18 18 18 18 18 18 19 19 20 20 20 21 21 22 22 23 23 23 23 23 23 23 23 24 24 24 25 25 25 26 27 27 28 29 30 30 31 31 32 33 35 35 36
19 20 20 20 20 21 21 22 22 22 22 23 23 24 24 24 24 24 24 24 24 24 24 25 25 25 25 26 26 27 27 28 29 30 30 31 32 33 33 34 34 35 36
21 21 21 22 22 23 23 24 24 24 25 25 25 25 25 25 25 25 25 25 24 25 25 25 25 26 27 28 28 28 28 29 30 31 31 32 33 34 34 35 35 36 36
23 23 23 24 24 25 25 25 25 25 25 26 26 26 26 26 26 26 26 26 26 25 26 26 26 27 28 28 29 29 29 30 30 31 32 33 34 34 35 36 36 36 35
26 25 25 25 26 26 26 26 26 26 26 26 26 26 26 26 26 27 27 27 27 27 28 28 28 28 28 29 30 30 30 31 32 32 33 34 35 36 36 36 36 35 35
28 28 27 27 27 28 28 28 28 28 27 27 27 27 27 28 28 28 28 29 29 29 29 29 29 29 29 30 31 31 31 32 32 33 34 35 35 35 35 35 35 34 34
29 29 29 29 30 30 30 29 29 29 29 29 29 29 29 30 30 30 30 30 29 30 30 30 29 30 31 32 32 32 32 32 33 34 34 34 33 33 33 33 33 32 32
30 30 30 31 31 31 30 30 30 30 30 30 30 31 31 30 30 30 30 30 30 30 30 30 30 31 31 32 32 32 32 32 32 33 33 33 32 31 31 31 30 29 29
31 31 32 32 32 32 32 32 32 31 31 31 31 31 31 31 30 30 30 30 30 30 30 30 30 31 31 32 32 32 31 31 31 32 31 30 30 30 29 28 28 28 27
32 32 32 32 32 32 32 33 32 32 31 31 30 30 31 31 30 30 30 29 29 29 29 29 30 30 30 31 31 31 31 30 30 29 28 27 27 27 27 27 27 26 26
32 32 32 32 32 32 32 31 32 32 31 31 31 31 30 30 30 29 29 29 29 29 29 29 29 30 30 30 30 30 30 29 28 27 26 26 26 27 27 26 26 25 25
31 31 31 31 31 30 31 31 31 31 31 31 31 30 30 29 29 28 28 28 28 29 28 29 30 30 30 29 28 28 28 28 26 25 25 25 26 26 25 25 25 25 24
30 30 30 29 30 30 30 30 31 31 31 31 30 30 30 29 28 28 27 28 28 28 28 28 28 28 27 27 27 27 27 26 25 24 25 25 25 25 25 24 24 23 23
29 29 29 29 29 29 30 30 30 29 29 29 29 28 28 27 27 27 27 28 28 27 28 28 28 27 27 27 26 26 25 25 24 24 25 25 25 25 24 24 23 23 23
29 29 29 29 29 29 28 28 28 27 28 28 27 27 27 27 26 26 26 26 26 26 27 27 27 26 26 25 25 24 24 24 24 24 24 25 25 25 24 24 23 23 23
28 27 27 27 26 26 26 26 26 26 27 27 26 26 26 25 25 25 25 26 26 26 26 26 26 25 25 25 25 24 24 24 24 25 25 25 25 25 25 24 24 23 23
Wind_Direction
289 283 274 270 267 266 267 266 264 265 264 262 260 260 259 259 258 258 258 260 261 263 267 269 270 272 274 274 276 277 277 277 276 277 277 276 277 277 278 278 277 278 278
287 283 277 271 273 272 268 265 268 267 268 267 265 265 263 262 262 262 263 264 265 266 268 269 271 273 273 275 277 276 277 276 275 277 278 279 279 278 279 280 279 278 280
291 286 284 281 277 275 271 267 272 274 272 272 272 272 270 266 264 266 269 271 269 269 270 272 272 273 274 275 277 277 279 278 276 276 278 280 280 280 280 281 281 283 282
298 296 295 288 281 276 273 273 278 279 278 278 279 279 278 275 272 272 274 276 273 272 272 274 274 275 275 277 277 277 279 279 277 278 279 280 281 281 281 282 283 284 285
302 301 299 295 289 280 276 277 280 282 283 283 286 285 280 280 280 277 278 277 275 274 274 276 277 277 276 277 277 277 279 279 279 279 280 280 281 282 282 282 283 285 285
300 303 301 297 291 285 280 280 281 282 283 285 287 288 283 281 282 280 281 282 278 277 277 276 276 277 278 277 278 280 281 281 281 281 280 282 282 282 283 284 284 285 286
297 300 301 296 294 290 288 286 285 285 286 287 288 288 286 284 283 282 282 283 281 279 279 278 277 278 278 278 281 281 280 281 280 281 281 283 282 283 283 285 286 286 287
292 293 294 294 292 291 290 289 287 287 287 288 289 288 287 286 286 284 285 285 284 282 281 281 282 280 279 280 281 283 285 285 285 284 284 285 285 285 286 287 287 286 287
289 291 292 291 292 291 291 290 289 289 289 290 290 290 288 286 285 284 284 285 286 285 284 284 283 282 283 285 286 285 284 287 288 289 287 288 289 288 288 288 290 290 290
287 290 292 292 291 292 292 291 290 289 289 289 289 290 290 287 285 284 285 286 286 286 286 288 287 286 286 287 287 286 286 287 289 291 293 293 292 291 291 291 293 293 294
287 288 288 290 291 291 291 291 290 288 288 289 289 288 288 287 286 285 286 286 286 285 286 288 288 288 290 290 288 287 288 289 291 293 294 294 293 293 294 296 296 297 297
285 286 286 288 289 290 290 290 290 288 288 288 288 287 287 286 286 286 286 286 286 285 286 288 288 289 291 293 292 292 291 293 294 295 295 295 295 297 299 300 299 299 300
283 285 286 286 288 289 289 289 289 288 288 288 287 288 287 286 286 285 286 287 287 288 289 288 289 289 291 293 293 292 292 293 295 296 296 296 298 298 298 298 299 300 300
281 282 283 285 286 288 289 290 289 289 289 288 287 286 286 285 285 285 285 286 288 289 290 289 288 289 290 292 293 294 294 294 296 296 296 298 299 298 296 297 299 300 301
279 280 281 283 285 287 288 289 289 289 290 288 287 286 286 285 285 285 285 286 286 287 288 288 288 290 291 292 293 294 294 294 295 295 296 297 298 298 299 299 299 301 301
277 278 279 281 284 286 287 288 289 290 289 288 286 286 286 285 284 284 285 285 285 285 286 287 288 290 291 292 293 293 294 294 295 295 297 298 298 298 299 300 300 301 301
278 277 277 279 282 284 285 286 287 288 288 287 286 285 285 285 284 284 285 285 285 285 286 287 288 290 292 293 293 293 294 295 296 296 297 297 297 298 300 300 300 301 302
277 277 278 279 282 283 284 284 285 286 285 285 285 285 285 285 284 284 285 285 285 285 285 287 289 291 293 294 294 294 294 295 295 295 296 296 297 298 300 301 301 302 304
277 278 279 280 281 282 282 283 284 284 284 284 284 284 284 285 284 285 285 284 284 284 285 286 288 290 292 293 294 295 294 294 294 294 295 296 297 299 300 302 303 304 305
277 278 279 280 280 281 282 283 282 282 282 283 283 283 284 284 284 284 283 283 283 284 285 287 289 290 292 293 295 295 294 294 294 295 296 297 298 299 300 302 303 305 306
277 277 278 279 280 281 282 282 282 281 281 282 282 283 284 283 283 284 283 283 283 284 285 286 287 289 291 293 294 294 295 294 294 295 297 298 300 300 301 301 303 305 306
275 278 279 279 279 281 281 281 281 281 281 282 282 282 283 284 283 283 284 284 285 286 286 288 289 289 290 292 294 295 295 295 295 295 297 298 299 301 302 303 304 305 306
274 276 277 278 279 279 280 279 279 279 279 279 280 281 283 283 283 282 283 284 286 287 288 290 291 292 293 293 294 294 295 296 296 296 296 297 299 301 302 303 303 304 306
274 276 277 277 278 279 279 279 279 279 279 280 281 281 282 283 284 285 285 286 287 287 289 290 291 291 292 293 293 293 294 295 296 296 298 299 300 301 300 301 302 304 305
275 277 277 277 279 280 280 279 278 279 280 281 282 282 283 283 285 286 286 286 287 288 289 290 291 291 292 292 292 294 294 294 295 297 298 299 300 300 299 300 301 302 303
276 276 278 278 279 280 279 279 279 281 282 283 283 284 285 285 284 285 286 287 287 288 290 291 290 290 290 291 292 293 293 294 295 296 298 299 300 299 299 299 299 301 302
Height
5878 5878 5878 5877 5877 5877 5877 5876 5876 5876 5876 5877 5877 5877 5877 5877 5877 5877 5878 5878 5878 5878 5878 5878 5877 5877 5876 5876 5875 5875 5874 5873 5871 5871 5869 5868 5867 5866 5865 5864 5863 5862 5861
5877 5876 5876 5875 5875 5874 5874 5874 5874 5874 5874 5874 5874 5873 5873 5873 5873 5873 5873 5873 5873 5873 5872 5872 5871 5871 5870 5870 5869 5868 5867 5866 5865 5864 5863 5861 5860 5859 5858 5857 5855 5854 5853
5876 5875 5874 5873 5872 5872 5872 5871 5871 5871 5871 5871 5870 5870 5869 5869 5869 5868 5868 5868 5867 5867 5867 5866 5865 5865 5864 5864 5863 5862 5861 5860 5858 5857 5856 5855 5853 5852 5851 5850 5848 5846 5845
5874 5873 5872 5871 5870 5869 5869 5869 5868 5868 5867 5867 5867 5866 5865 5865 5864 5864 5863 5862 5862 5861 5861 5860 5859 5858 5858 5857 5856 5855 5854 5853 5852 5850 5849 5848 5846 5845 5843 5842 5840 5838 5836
5872 5871 5869 5868 5867 5867 5867 5866 5865 5865 5864 5864 5863 5862 5861 5860 5860 5859 5858 5857 5856 5855 5855 5854 5853 5852 5851 5850 5850 5848 5847 5846 5845 5843 5842 5840 5839 5837 5835 5833 5831 5830 5827
5870 5869 5867 5866 5865 5864 5864 5863 5863 5862 5861 5860 5859 5858 5857 5856 5855 5854 5853 5852 5851 5850 5849 5848 5847 5846 5845 5844 5843 5842 5841 5839 5838 5836 5834 5833 5832 5830 5828 5825 5823 5821 5819
5868 5866 5865 5864 5863 5862 5861 5860 5859 5858 5857 5856 5855 5854 5853 5852 5851 5849 5848 5847 5846 5844 5843 5842 5841 5840 5839 5838 5836 5835 5833 5832 5830 5829 5827 5826 5824 5821 5819 5817 5815 5812 5809
5865 5864 5863 5861 5860 5859 5858 5857 5856 5855 5854 5852 5851 5850 5848 5847 5846 5845 5843 5842 5840 5839 5838 5836 5835 5834 5833 5831 5830 5828 5826 5825 5823 5821 5819 5817 5815 5813 5811 5808 5805 5803 5800
5862 5861 5860 5858 5857 5856 5854 5853 5852 5851 5849 5848 5846 5845 5843 5842 5841 5840 5838 5837 5835 5834 5832 5831 5829 5828 5827 5825 5823 5821 5819 5817 5815 5813 5811 5808 5806 5804 5801 5799 5796 5793 5790
5858 5857 5856 5855 5853 5851 5850 5849 5847 5846 5844 5843 5842 5840 5838 5837 5836 5834 5833 5831 5830 5828 5826 5825 5823 5821 5820 5818 5816 5813 5812 5810 5808 5805 5803 5800 5797 5795 5792 5790 5787 5783 5780
5854 5853 5852 5850 5848 5847 5845 5844 5842 5841 5839 5838 5836 5834 5833 5831 5830 5828 5827 5825 5823 5822 5820 5818 5817 5815 5813 5811 5808 5806 5805 5802 5800 5797 5794 5792 5789 5786 5783 5780 5777 5774 5770
5849 5847 5846 5845 5843 5842 5840 5838 5837 5835 5834 5832 5830 5828 5826 5825 5823 5822 5820 5819 5817 5815 5814 5812 5810 5808 5806 5804 5801 5799 5797 5795 5792 5789 5787 5784 5781 5778 5775 5771 5768 5764 5760
5843 5841 5840 5839 5837 5836 5834 5833 5831 5829 5827 5825 5824 5822 5820 5818 5816 5815 5813 5812 5810 5808 5806 5804 5803 5801 5799 5796 5794 5791 5789 5787 5784 5781 5778 5776 5773 5769 5766 5762 5759 5755 5751
5836 5835 5834 5833 5831 5830 5828 5826 5824 5822 5820 5818 5817 5815 5813 5811 5810 5808 5806 5804 5803 5801 5799 5797 5795 5793 5791 5789 5786 5784 5781 5779 5775 5773 5770 5767 5763 5760 5757 5753 5749 5745 5742
5829 5828 5827 5826 5824 5823 5821 5819 5817 5815 5813 5811 5809 5808 5806 5804 5802 5801 5799 5797 5795 5794 5792 5790 5788 5786 5783 5781 5778 5776 5773 5770 5767 5764 5761 5757 5754 5751 5747 5743 5739 5735 5732
5822 5820 5819 5818 5816 5815 5813 5811 5809 5808 5806 5804 5802 5800 5798 5797 5794 5793 5791 5789 5787 5786 5784 5782 5779 5777 5775 5772 5770 5767 5764 5761 5758 5755 5752 5748 5745 5741 5737 5734 5730 5726 5723
5813 5812 5811 5810 5808 5807 5805 5803 5802 5800 5798 5796 5794 5792 5790 5789 5787 5785 5783 5781 5779 5777 5775 5773 5771 5768 5766 5764 5761 5758 5755 5752 5749 5746 5743 5739 5736 5732 5728 5725 5721 5718 5714
5805 5804 5803 5801 5800 5798 5797 5795 5793 5792 5790 5788 5786 5784 5782 5780 5778 5776 5774 5772 5770 5769 5767 5765 5762 5760 5757 5755 5752 5749 5746 5743 5740 5737 5734 5730 5727 5723 5720 5716 5713 5709 5706
5796 5795 5794 5792 5791 5790 5788 5786 5785 5783 5781 5779 5777 5775 5773 5771 5770 5768 5766 5764 5762 5760 5758 5756 5754 5751 5749 5746 5743 5740 5737 5734 5731 5728 5724 5721 5718 5715 5712 5708 5705 5702 5698
5787 5786 5784 5783 5782 5780 5779 5777 5776 5774 5772 5770 5768 5766 5765 5763 5761 5759 5757 5755 5753 5751 5749 5747 5745 5742 5740 5737 5734 5731 5728 5725 5722 5719 5716 5713 5710 5707 5704 5701 5698 5695 5691
5778 5777 5775 5774 5773 5771 5770 5768 5766 5765 5763 5761 5760 5758 5756 5754 5752 5750 5748 5746 5744 5742 5740 5738 5736 5733 5731 5728 5726 5723 5720 5717 5714 5711 5708 5706 5703 5700 5697 5694 5691 5688 5684
5769 5767 5766 5765 5763 5762 5760 5759 5757 5755 5754 5752 5750 5749 5747 5745 5743 5742 5740 5738 5736 5734 5732 5729 5727 5725 5722 5720 5717 5714 5712 5709 5706 5703 5701 5698 5696 5693 5690 5687 5684 5681 5678
5760 5758 5757 5756 5754 5753 5751 5750 5748 5746 5745 5743 5741 5740 5738 5736 5735 5733 5731 5729 5727 5725 5723 5721 5719 5716 5714 5711 5709 5706 5704 5701 5699 5696 5694 5691 5688 5686 5683 5680 5677 5674 5671
5751 5749 5748 5747 5745 5744 5742 5741 5739 5737 5736 5734 5733 5731 5729 5728 5726 5724 5723 5721 5719 5717 5715 5713 5710 5708 5705 5703 5700 5698 5696 5693 5691 5689 5686 5684 5681 5678 5676 5673 5670 5668 5665
5742 5740 5739 5738 5736 5735 5733 5732 5730 5729 5727 5726 5724 5723 5721 5719 5718 5716 5714 5712 5711 5709 5706 5704 5702 5700 5697 5695 5693 5690 5688 5686 5684 5681 5679 5676 5674 5671 5669 5666 5664 5661 5659
5733 5732 5730 5729 5728 5726 5725 5724 5722 5721 5719 5718 5716 5715 5713 5711 5710 5708 5706 5704 5702 5700 5698 5696 5694 5692 5689 5687 5685 5683 5681 5679 5676 5674 5671 5669 5667 5664 5662 5659 5657 5654 5652